Regional Weather Roundup
Issued by NWS Charleston, SC

Current Version | Previous Version | Text Only | Print | Product List | Glossary Off
Versions: 1 2 3 4 5 6 7 8 9 10 11 12 13 14 15 16 17 18 19 20 21 22 23 24 25 26 27 28 29 30 31 32 33 34 35 36 37 38 39 40 41 42 43 44 45 46 47 48 49 50
000 ASUS42 KCHS 191827 RWRCHS REGIONAL WEATHER ROUNDUP NATIONAL WEATHER SERVICE CHARLESTON SC 200 PM EDT SAT AUG 19 2017 NOTE: "FAIR" INDICATES FEW OR NO CLOUDS BELOW 12,000 FEET WITH NO SIGNIFICANT WEATHER AND/OR OBSTRUCTIONS TO VISIBILITY. NOT ALL STATIONS ARE QUALITY CONTROLLED. USE DATA WITH CAUTION... ESPECIALLY DEWPOINT OBSERVATIONS. SCZ027-030-031-034>040-042>050-191900- ...SOUTHEAST SOUTH CAROLINA... CITY SKY/WX TMP DP RH WIND PRES REMARKS N CHARLESTON PTSUNNY 93 76 57 SW8 29.94F HX 105 6HR MIN TEMP: 81; 6HR MAX TEMP: 94; WATERFRONT PRK N/A N/A N/A N/A S8 29.79F JOHNS ISLAND FAIR 91 79 66 S10 29.95S HX 107 PINOPOLIS N/A 90 75 62 W7 29.87S HX 100 MONCKS CORNER FAIR 91 70 49 SW6 29.93F HX 97 SUMMERVILLE FAIR 91 72 52 W7 29.95S HX 98 BEAUFORT MCAS MOSUNNY 94 74 52 VRB7 29.95F HX 104 6HR MIN TEMP: 79; 6HR MAX TEMP: 94; BEAUFORT ARPT MOCLDY 90 73 58 SW7 29.95F HX 98 HILTON HEAD IS MOSUNNY 90 81 74 S14 29.97S HX 108 WALTERBORO PTCLDY 91 70 49 W8 29.95F HX 97 ALLENDALE NOT AVBL ...SOUTHERN MIDLANDS AND PEE DEE... CITY SKY/WX TMP DP RH WIND PRES REMARKS GEORGETOWN MOCLDY 90 79 70 SW8 29.93F HX 105 KINGSTREE FAIR 91 70 49 W7 29.93F HX 97 ORANGEBURG MOSUNNY 94 66 39 VRB7 29.95F HX 97 6HR MIN TEMP: 77; 6HR MAX TEMP: 94; BARNWELL FAIR 93 70 46 SW6G14 29.96S HX 99 AIKEN FAIR 90 68 48 SW8 30.00F HX 93 MANNING FAIR 91 73 55 MISG 29.94F HX 100 COLUMBIA MOSUNNY 95 66 38 W10 29.94F HX 98 6HR MIN TEMP: 77; 6HR MAX TEMP: 95; SUMTER MOSUNNY 93 65 40 W5 29.92F HX 95 6HR MIN TEMP: 80; 6HR MAX TEMP: 94; 6HR PCP: TRACE; FLORENCE MOSUNNY 92 72 51 SW9 29.92F HX 99 6HR MIN TEMP: 79; 6HR MAX TEMP: 93; MYRTLE BEACH MOSUNNY 90 79 70 S14 29.94F HX 105 N MYRTLE BEACH SUNNY 88 78 72 S20 29.92F HX 101 6HR MIN TEMP: 83; 6HR MAX TEMP: 88; $$ GAZ063-065-086>088-099>101-113>116-118-119-134>141-150-191900- ...SOUTHEAST GEORGIA... CITY SKY/WX TMP DP RH WIND PRES REMARKS SAVANNAH ARPT MOSUNNY 94 71 47 W9 29.96F HX 101 6HR MIN TEMP: 78; 6HR MAX TEMP: 95; HUNTER AAF MOSUNNY 93 73 52 W8 29.93F HX 102 6HR MIN TEMP: 77; 6HR MAX TEMP: 94; FORT STEWART PTSUNNY 94 69 43 SW9 29.94F HX 98 6HR MIN TEMP: 77; 6HR MAX TEMP: 94; STATESBORO SUNNY 93 60 33 NW7 29.96F HX 92 SYLVANIA CLEAR 92 70 48 W3 29.97F HX 98 CLAXTON FAIR 94 66 39 SW5 29.96F HX 97 ...CSRA...CENTRAL AND FAR SOUTHEAST GEORGIA... CITY SKY/WX TMP DP RH WIND PRES REMARKS THOMSON MOSUNNY 89 66 45 NE8 30.03F HX 91 AUGUSTA-BUSH SUNNY 93 67 42 W7 29.96F HX 96 6HR MIN TEMP: 77; 6HR MAX TEMP: 94; AUGUSTA-DANIEL SUNNY 93 63 36 VRB6 29.98F HX 94 SWAINSBORO FAIR 91 63 38 NW7 29.98F HX 92 VIDALIA SUNNY 95 64 36 SW5 29.97F HX 97 EASTMAN FAIR 94 44 18 NW5 30.00F HX 90 HAZLEHURST FAIR 95 42 15 NE3 29.96F HX 91 ALMA MOSUNNY 95 69 42 NW7 29.97F HX 100 6HR MIN TEMP: 76; 6HR MAX TEMP: 95; WAYCROSS PTSUNNY 92 67 43 W5 29.97F HX 96 JESUP MOCLDY 95 70 43 W5 29.97S HX 101 BAXLEY FAIR 91 66 43 W6 29.97F HX 94 BRUNSWICK PTSUNNY 91 70 49 S5 29.97F HX 97 SAINT SIMONS SUNNY 90 77 65 SE9 29.97F HX 103 6HR MIN TEMP: 79; 6HR MAX TEMP: 90; $$ SCZ027-028-034-036>038-045-046-048>050-GAZ119-141-191900- ...LAKE AND SUPPLEMENTAL COASTAL OBSERVATIONS... STATION/POSITION TIME TEMP WIND PRES WAVE SWELL AIR SEA DIR/SP/G HT/PER HT/PER/DIR (UTC) (F) (DEG/KT/KT) (MB) (FT/S) (FT/S/D) WINYAH BAY 1745 89 200/ 11 1014.0S LAKE MURRAY 1820 89 180/ 10/ 12 1012.9 ACE BASIN NERRS 1745 93 220/ 2 1014.0S FORT PULASKI 1800 89 87 180/ 8/ 11 1014.7 SAPELO ISLAND 1800 93 160/ 4 1015.0 $$ ANZ835-935-AMZ111-154-330-350-352-354-370-450-454-472-191900- ...C-MAN AND BUOY OBSERVATIONS... STATION/POSITION TIME TEMP WIND PRES WAVE SWELL AIR SEA DIR/SP/G HT/PER HT/PER/DIR (UTC) (F) (DEG/KT/KT) (MB) (FT/S) (FT/S/D) BUOY 41004 1810 84 85 210/ 14/ 16 1014.4 BUOY 41008 1750 82 86 180/ 10/ 12 1015.0F 2/ 7 2/100/ 7 FOLLY BEACH CMAN 1800 86 200/ 13/ 15 1015.0F CAPERS NEARSHORE 1808 83 86 220/ 12/ 17 1014.1F FRIPP NEARSHORE 1808 84 200/ 12/ 16 1014.1F STATION/POSITION TIME TEMP WIND PRES WAVE SWELL AIR SEA DIR/SP/G HT/PER HT/PER/DIR (UTC) (F) (DEG/KT/KT) (MB) (FT/S) (FT/S/D) 5E ST. MARYS GA 1730 87 N/A 2/ 8 FRYING PAN BUOY 1810 84 84 210/ 14/ 17 1013.9 BUOY 41025 1750 84 84 240/ 14/ 16 1013.7F 4/ 6 2/200/ 7 CAPE LOOKOUT NC 1800 86 220/ 13/ 18 1013.3F BUOY 41002 1750 84 85 200/ 12/ 14 1017.0F 4/ 6 3/240/ 6 BUOY 41010 1810 85 86 150/ 6/ 8 1016.0 ST AUGUSTINE FL 1800 83 83 130/ 11/ 12 1015.9F $$

USA.gov is the U.S. government's official web portal to all federal, state and local government web resources and services.